Location: Tr�vern
(48.0333°N, 4.6000°W)
Time: 07:01:01
(UTC+00:00)

Cosmos 1980 Rocket - Pass Details

Date: 14 July 2020
Orbit: 828 x 851 km, 71.0° (Epoch: 04 August)

Event Time Altitude Azimuth Distance (km) Brightness Sun altitude
Rises 03:22:51 0° 328° (NNW) 3,429 5.6 -9.7°
Reaches altitude 10° 03:25:23 10° 323° (NW) 2,488 4.8 -9.4°
Maximum altitude 03:30:52 50° 250° (WSW) 1,080 2.4 -8.8°
Drops below altitude 10° 03:36:18 10° 177° (S) 2,463 4.2 -8.2°
Sets 03:38:47 0° 172° (S) 3,391 5.0 -7.9°
